Flag for Japan Weather past 2 weeks in Hiroshima, Japan

Now
67 °F

Passing clouds.


Feels Like: 67 °F
Forecast: 53 / 72 °F
Wind: 7 mph from North

Location: Iwakuni Marine Corps Air Station

Current Time: May 23, 2015 at 1:12:59 AM

Latest Report: May 22, 2015 at 11:55 PM


Visibility: N/A

Pressure: 29.94 "Hg

Humidity: 71%

Dew point: 57 °F

Location of HiroshimaLocation

Historic Weather in Hiroshima — Graph

°F

Hiroshima temperature yesterday

Maximum temperature yesterday: 80 °F (at 5:55 PM)
Minimum temperature yesterday: 57 °F (at 5:55 AM)
Average temperature yesterday: 68 °F

Past Weeks' High & Low Weather Summary

 TemperatureHumidityPressure
High80 °F (May 22, 5:55 PM)100% (May 15, 10:55 PM)30.16 "Hg (May 15, 10:55 PM)
Low53 °F (May 13, 2:55 AM)37% (May 17, 3:55 PM)29.59 "Hg (May 18, 11:55 PM)
Average67 °F73%29.85 "Hg
* Reported May 7 11:55 PM — May 22 11:55 PM, Hiroshima, Weather by CustomWeather, © 2015

Note: Actual official high and low records may vary slightly from our data, if they occured in-between our weather recording intervals... More about our weather records

Advertising

Hiroshima weather history for previous 24 hours

 ConditionsComfort  
Time TempWeatherWind HumidityBarometerVisibility
11:55 PM
Fri, May 22
67 °FPassing clouds.7 mph71%29.94 "HgN/A
10:55 PM68 °FPassing clouds.8 mph68%29.95 "HgN/A
9:55 PM70 °FPassing clouds.3 mph57%29.96 "HgN/A
8:55 PM68 °FPassing clouds.6 mph73%29.94 "HgN/A
7:55 PM72 °FPassing clouds.6 mph55%29.93 "HgN/A
6:55 PM76 °FPartly sunny.5 mph56%29.91 "HgN/A
5:55 PM80 °FScattered clouds.7 mph45%29.90 "HgN/A
4:55 PM77 °FPartly sunny.10 mph50%29.90 "HgN/A
3:55 PM77 °FPartly sunny.15 mph50%29.91 "HgN/A
2:55 PM77 °FPartly sunny.8 mph50%29.93 "HgN/A
1:55 PM73 °FPartly sunny.6 mph62%29.94 "HgN/A
12:55 PM69 °FPartly sunny.6 mph68%29.96 "HgN/A
11:55 AM69 °FPartly sunny.7 mph70%29.98 "HgN/A
10:55 AM70 °FPartly sunny.6 mph66%30.00 "HgN/A
9:55 AM66 °FBroken clouds.6 mph61%30.01 "HgN/A
8:55 AM67 °FPartly sunny.6 mph53%30.02 "HgN/A
7:55 AM62 °FPartly sunny.No wind58%30.01 "HgN/A
6:55 AM59 °FBroken clouds.3 mph64%30.01 "HgN/A
5:55 AM57 °FPartly sunny.6 mph67%30.00 "HgN/A
4:55 AM58 °FPassing clouds.7 mph65%29.99 "HgN/A
3:55 AM58 °FPassing clouds.7 mph67%29.98 "HgN/A
2:55 AM60 °FPassing clouds.6 mph60%29.98 "HgN/A
1:55 AM60 °FPassing clouds.8 mph60%29.98 "HgN/A
Weather by CustomWeather, © 2015

See weather overviewHow to use our weather pages